BOX115 EDDP-EBBR

Flight info

Callsign BOX115
Flight time N/A
Altitude 30000
Route ORTAG5E ORTAG Q230 KUMER DCT WRB DCT ABAMI Z717 NEREL/N0457F240 T855 AGENI/N0420F180 T855 BATTY
Aircraft B77L/H-SDE1E2E3FGHIJ2J3J4J5M1RWXY/LB1D1

Departure

Time N/A
Airport Leipzig/Halle Airport (EDDP)

Arrival

Time 2026-04-30 22:41
Airport Brussels Airport (EBBR)
Time Latitude Longitude Altitude Speed Heading
2026-04-30 22:27 50.85996 5.16616 12320 ft 297 kts 310°
2026-04-30 22:27 50.87321 5.14100 12309 ft 297 kts 310°
2026-04-30 22:27 50.88843 5.07858 11919 ft 343 kts 269°
2026-04-30 22:28 50.88683 4.99871 10303 ft 382 kts 267°
2026-04-30 22:28 50.88613 4.95726 10216 ft 367 kts 267°
2026-04-30 22:29 50.88923 4.84479 10256 ft 315 kts 272°
2026-04-30 22:29 50.89080 4.81066 10288 ft 311 kts 272°
2026-04-30 22:30 50.89669 4.67549 9545 ft 291 kts 272°
2026-04-30 22:31 50.90054 4.58267 8666 ft 278 kts 271°
2026-04-30 22:32 50.90630 4.49032 8210 ft 280 kts 277°
2026-04-30 22:32 50.91255 4.42724 7578 ft 292 kts 277°
2026-04-30 22:33 50.92153 4.33329 6647 ft 282 kts 276°
2026-04-30 22:33 50.92715 4.27306 6043 ft 275 kts 276°
2026-04-30 22:34 50.93483 4.18641 4844 ft 241 kts 265°
2026-04-30 22:35 50.92082 4.14727 4351 ft 193 kts 210°
2026-04-30 22:36 50.87857 4.16205 3709 ft 168 kts 139°
2026-04-30 22:36 50.87184 4.17708 3651 ft 169 kts 121°
2026-04-30 22:37 50.86599 4.22983 3014 ft 173 kts 81°
2026-04-30 22:37 50.86913 4.24869 2860 ft 180 kts 85°
2026-04-30 22:37 50.87412 4.28653 2375 ft 165 kts 85°
2026-04-30 22:38 50.87839 4.31921 1859 ft 134 kts 86°
2026-04-30 22:38 50.88159 4.34704 1575 ft 131 kts 87°
2026-04-30 22:39 50.88310 4.36159 1392 ft 135 kts 87°
2026-04-30 22:39 50.88784 4.40485 847 ft 139 kts 83°
2026-04-30 22:40 50.89707 4.44907 302 ft 144 kts 66°
2026-04-30 22:41 50.90746 4.48514 132 ft 59 kts 65°
2026-04-30 22:41 50.90944 4.49207 129 ft 29 kts 68°
2026-04-30 22:42 50.90910 4.49664 145 ft 6 kts 198°
2026-04-30 22:43 50.90795 4.49315 146 ft 29 kts 245°
2026-04-30 22:43 50.90627 4.48733 146 ft 29 kts 245°
2026-04-30 22:44 50.90460 4.48152 147 ft 29 kts 245°
2026-04-30 22:45 50.90180 4.47186 147 ft 9 kts 245°
2026-04-30 22:45 50.90215 4.46978 144 ft 13 kts 297°
2026-04-30 22:46 50.90306 4.46685 144 ft 15 kts 296°
2026-04-30 22:47 50.90378 4.46272 148 ft 3 kts 335°
2026-04-30 22:47 50.90419 4.46242 148 ft 2 kts 335°
2026-04-30 22:48 50.90428 4.46236 148 ft 0 kts 335°